Regional Weather Roundup
Issued by NWS Northern Indiana

Home | Current Version | Previous Version | Graphics & Text | Print | Product List | Glossary On
Versions: 1 2 3 4 5 6 7 8 9 10 11 12 13 14 15 16 17 18 19 20 21 22 23 24 25 26 27 28 29 30 31 32 33 34 35 36 37 38 39 40 41 42 43 44 45 46 47 48 49 50
000
ASUS43 KIWX 070310
RWRIWX

KIWX WEATHER ROUNDUP
NATIONAL WEATHER SERVICE NORTHERN INDIANA
1000 PM EST SAT FEB 06 2016

NOTE: "FAIR" INDICATES FEW OR NO CLOUDS BELOW 12,000 FEET WITH NO
SIGNIFICANT WEATHER AND/OR OBSTRUCTIONS TO VISIBILITY.

* THESE STATIONS ARE NOT UNDER NWS QUALITY CONTROL. THEY ALSO MAY NOT
  REPORT WEATHER SUCH AS PRECIPITATION OR FOG.

INZ001>027-070400-
NORTHERN INDIANA

CITY           SKY/WX    TMP DP  RH WIND       PRES   REMARKS
GARY*          CLEAR     36  28  75 SE6       30.13F
VALPARAISO     CLEAR     33  28  81 S5        30.13F WCI  29
MICHIGAN CITY* CLEAR     34  30  86 S6        30.13F WCI  29
LAPORTE*       PTCLDY    34  31  89 S5        30.14F WCI  30
SOUTH BEND     CLEAR     30  25  81 S6        30.14F WCI  24
GOSHEN         CLEAR     33  26  75 S6        30.14F WCI  28
MONTICELLO*    CLEAR     31  25  78 CALM      30.16F
LOGANSPORT*    CLEAR     30  25  80 S5        30.17F WCI  25
ROCHESTER*     CLEAR     36  27  69 S5        30.16F
WARSAW*        PTCLDY    30  27  86 CALM      30.15F
FORT WAYNE     PTCLDY    30  25  81 S6        30.18F WCI  24
HUNTINGTON*    CLEAR     30  24  78 S3        30.17F
PERU/GRISSOM   CLEAR     31  27  83 S5        30.15F WCI  27
MARION*        CLEAR     32  21  62 S5        30.18F WCI  28

$$
INZ028>050-070400-
CENTRAL INDIANA

CITY           SKY/WX    TMP DP  RH WIND       PRES   REMARKS
LAFAYETTE      CLEAR     29  25  85 CALM      30.16F
KOKOMO*          N/A     32  25  74 S5        30.17F WCI  27
MUNCIE*        CLEAR     36  25  64 S7        30.18F
INDIANAPOLIS   CLEAR     35  23  61 S8        30.18F WCI  29

$$
MIZ043>046-050>051-056>058-064>065-071>073-077>080-070400-
SOUTHWEST LOWER MICHIGAN

CITY           SKY/WX    TMP DP  RH WIND       PRES   REMARKS
BATTLE CREEK   CLOUDY    33  26  75 S7        30.13F WCI  27
BENTON HARBOR  CLEAR     33  26  75 S5        30.12F WCI  29
COLDWATER*     CLOUDY    33  27  79 CALM      30.14F
HILLSDALE*     CLOUDY    32  23  70 S6        30.13F WCI  27
HOLLAND        PTCLDY    31  27  85 S5        30.11F WCI  26
GRAND RAPIDS   CLOUDY    33  27  78 S7        30.11F WCI  27
KALAMAZOO      CLOUDY    33  26  75 S7        30.13F WCI  27
STURGIS*       MOCLDY    31  27  84 S5        30.13F WCI  27
THREE RIVERS*  FAIR      31  27  86 S3        30.14F

$$
OHZ001>008-015>018-024>025-070400-
NORTHWEST OHIO

CITY           SKY/WX    TMP DP  RH WIND       PRES   REMARKS
DEFIANCE       CLEAR     30  23  75 CALM      30.18F
FINDLAY        CLEAR     30  22  72 S7        30.19F WCI  23
TOLEDO EXPRESS PTCLDY    26  21  81 CALM      30.18F
TOLEDO METCALF CLEAR     30  22  72 SW7       30.19F WCI  23
LIMA           CLEAR     33  24  69 S8        30.18F WCI  26

$$
AND FOR LAKE MICHIGAN COASTAL AND OPEN LAKE BUOY OBSERVATIONS

STATION/POSITION TEMP    WIND        PRES    VSBY  WAVE
                 AIR SEA DIR/SP/G                  HT/PER
                 (F)     (DEG/KT/KT) (MB)    (MI)  (FT/S)
CALUMET HARBOR    36     170/  6/  9 1019.5F
MICHIGAN CITY     37     150/ 12/ 14   N/A
BURNS HARBOR      36     180/  9/ 11 1021.0F
SAINT JOSEPH      34     130/  4/  7 1020.0F

$$
&&



USA.gov is the U.S. government's official web portal to all federal, state and local government web resources and services.